FW8040 Weather Reports


time (UTC)temp
C
wind
direction
speed
KPH
gust
KPH
rain 1hr
cm
rain 24hr
cm
rain mn
cm
humidity
%
barometer
mb
20260505181054 26 224 0.0 3.2 0.00 0.00 0.00 43 1015.3
20260505180543 26 0 0.0 3.2 0.00 0.00 0.00 44 1015.3
20260505180051 26 0 0.0 3.2 0.00 0.00 0.00 43 1015.4
20260505175543 26 218 0.0 3.2 0.00 0.00 0.00 43 1015.3
20260505175043 26 181 0.0 3.2 0.00 0.00 0.00 44 1015.3
20260505174549 26 221 0.0 3.2 0.00 0.00 0.00 44 1015.3
20260505174040 26 213 0.0 3.2 0.00 0.00 0.00 45 1015.4
20260505173543 25 241 0.0 4.8 0.00 0.00 0.00 46 1015.4
20260505173046 25 217 0.0 4.8 0.00 0.00 0.00 48 1015.5
20260505172543 25 0 0.0 3.2 0.00 0.00 0.00 48 1015.3
20260505172043 25 227 0.0 3.2 0.00 0.00 0.00 46 1015.5
20260505171553 25 0 0.0 3.2 0.00 0.00 0.00 47 1015.5
20260505171044 25 0 0.0 3.2 0.00 0.00 0.00 48 1015.6
20260505170543 25 0 0.0 3.2 0.00 0.00 0.00 49 1015.5
20260505170049 25 245 0.0 3.2 0.00 0.00 0.00 48 1015.5
20260505165545 25 0 0.0 3.2 0.00 0.00 0.00 47 1015.6
20260505165043 25 117 0.0 3.2 0.00 0.00 0.00 49 1015.6
20260505164554 25 0 0.0 3.2 0.00 0.00 0.00 49 1015.7
20260505164044 25 266 0.0 1.6 0.00 0.00 0.00 50 1015.7
20260505163543 25 0 0.0 1.6 0.00 0.00 0.00 50 1015.8
20260505163051 25 0 0.0 1.6 0.00 0.00 0.00 49 1015.8
20260505162540 25 0 0.0 1.6 0.00 0.00 0.00 50 1015.9
20260505162044 24 243 0.0 1.6 0.00 0.00 0.00 50 1016.0
20260505161554 24 0 0.0 1.6 0.00 0.00 0.00 49 1015.9
20260505161045 24 0 0.0 1.6 0.00 0.00 0.00 49 1016.0
20260505160544 23 0 0.0 3.2 0.00 0.00 0.00 51 1016.0
20260505153052 22 251 0.0 1.6 0.00 0.00 0.00 56 1016.3
20260505152544 22 0 0.0 1.6 0.00 0.00 0.00 57 1016.2
20260505152043 22 0 0.0 1.6 0.00 0.00 0.00 58 1016.3
20260505151552 22 0 0.0 1.6 0.00 0.00 0.00 58 1016.3
20260505151043 22 249 0.0 1.6 0.00 0.00 0.00 59 1016.3
20260505150544 22 0 0.0 1.6 0.00 0.00 0.00 58 1016.3
20260505140544 20 0 0.0 1.6 0.00 0.00 0.00 66 1016.1
20260505124553 16 0 0.0 0.0 0.00 0.00 0.00 73 1016.3
20260505124044 16 0 0.0 0.0 0.00 0.00 0.00 73 1016.3
20260505123545 16 0 0.0 1.6 0.00 0.00 0.00 74 1016.3
20260505123048 16 0 0.0 1.6 0.00 0.00 0.00 75 1016.3
20260505122545 16 0 0.0 1.6 0.00 0.00 0.00 75 1016.4
20260505122043 15 0 0.0 1.6 0.00 0.00 0.00 76 1016.3
20260505121552 15 243 0.0 0.0 0.00 0.00 0.00 76 1016.4
20260505121044 15 0 0.0 1.6 0.00 0.00 0.00 76 1016.2
20260505120543 15 0 0.0 1.6 0.00 0.00 0.00 77 1016.1
20260505120054 15 0 0.0 0.0 0.00 0.00 0.00 77 1016.1
20260505115544 14 0 0.0 0.0 0.00 0.00 0.00 77 1016.1
20260505115043 14 0 0.0 0.0 0.00 0.00 0.00 78 1016.1
20260505114552 14 0 0.0 0.0 0.00 0.00 0.00 78 1016.1
20260505114043 13 0 0.0 0.0 0.00 0.00 0.00 79 1016.1
20260505113543 13 0 0.0 0.0 0.00 0.00 0.00 80 1016.1
20260505113055 13 0 0.0 0.0 0.00 0.00 0.00 80 1016.0
20260505112545 13 0 0.0 0.0 0.00 0.00 0.00 81 1015.9
20260505112044 12 0 0.0 0.0 0.00 0.00 0.00 82 1015.9
20260505111548 12 0 0.0 0.0 0.00 0.00 0.00 82 1015.7
20260505111045 12 0 0.0 0.0 0.00 0.00 0.00 82 1015.7
20260505110544 12 0 0.0 0.0 0.00 0.00 0.00 81 1015.7
20260505102044 12 0 0.0 0.0 0.00 0.00 0.00 80 1015.2
20260505101551 12 0 0.0 0.0 0.00 0.00 0.00 80 1015.2
20260505101044 12 0 0.0 0.0 0.00 0.00 0.00 80 1015.2
20260505100546 12 0 0.0 0.0 0.00 0.00 0.00 80 1015.2
20260505100056 12 0 0.0 0.0 0.00 0.00 0.00 80 1015.1
20260505095545 12 0 0.0 0.0 0.00 0.00 0.00 80 1015.1
20260505095043 12 0 0.0 0.0 0.00 0.00 0.00 80 1015.1
20260505094606 12 0 0.0 0.0 0.00 0.00 0.00 80 1015.0
20260505094044 12 0 0.0 0.0 0.00 0.00 0.00 79 1015.0
20260505093547 12 0 0.0 0.0 0.00 0.00 0.00 79 1015.0
20260505093054 12 0 0.0 0.0 0.00 0.00 0.00 79 1015.0
20260505092545 12 0 0.0 0.0 0.00 0.00 0.00 79 1014.9
20260505092044 12 0 0.0 0.0 0.00 0.00 0.00 79 1014.9
20260505091604 12 0 0.0 0.0 0.00 0.00 0.00 79 1014.9
20260505091044 12 0 0.0 0.0 0.00 0.00 0.00 79 1014.9
20260505090544 12 0 0.0 0.0 0.00 0.00 0.00 79 1014.9
20260505090058 12 0 0.0 0.0 0.00 0.00 0.00 79 1014.9
20260505085544 13 0 0.0 0.0 0.00 0.00 0.00 79 1014.9
20260505085044 13 0 0.0 0.0 0.00 0.00 0.00 79 1014.9
20260505084555 13 0 0.0 0.0 0.00 0.00 0.00 79 1014.9
20260505084043 13 0 0.0 0.0 0.00 0.00 0.00 78 1014.7
20260505083544 13 0 0.0 0.0 0.00 0.00 0.00 79 1014.8
20260505083058 13 0 0.0 0.0 0.00 0.00 0.00 78 1014.9
20260505082543 13 0 0.0 0.0 0.00 0.00 0.00 78 1014.7
20260505082044 13 0 0.0 0.0 0.00 0.00 0.00 77 1014.7
20260505081600 13 0 0.0 0.0 0.00 0.00 0.00 77 1014.7
20260505081045 13 0 0.0 0.0 0.00 0.00 0.00 77 1014.7
20260505080546 13 0 0.0 0.0 0.00 0.00 0.00 77 1014.6
20260505080053 13 0 0.0 0.0 0.00 0.00 0.00 77 1014.7
20260505075544 13 0 0.0 0.0 0.00 0.00 0.00 76 1014.7
20260505075046 13 0 0.0 0.0 0.00 0.00 0.00 76 1014.6
20260505074553 13 0 0.0 0.0 0.00 0.00 0.00 76 1014.6
20260505074046 13 0 0.0 0.0 0.00 0.00 0.00 75 1014.6
20260505073545 14 0 0.0 0.0 0.00 0.00 0.00 75 1014.6
20260505073103 14 0 0.0 0.0 0.00 0.00 0.00 74 1014.5
20260505072544 14 0 0.0 0.0 0.00 0.00 0.00 74 1014.5
20260505072044 14 0 0.0 0.0 0.00 0.00 0.00 74 1014.4
20260505071555 14 0 0.0 0.0 0.00 0.00 0.00 74 1014.4
20260505071044 15 0 0.0 0.0 0.00 0.00 0.00 73 1014.4
20260505070541 15 0 0.0 0.0 0.00 0.00 0.00 73 1014.4
20260505070054 15 0 0.0 0.0 0.00 0.00 0.00 73 1014.4
20260505065544 15 0 0.0 0.0 0.00 0.00 0.00 72 1014.4
20260505065045 15 0 0.0 0.0 0.00 0.00 0.00 72 1014.4
20260505064554 15 0 0.0 0.0 0.00 0.00 0.00 72 1014.5
20260505064043 15 0 0.0 0.0 0.00 0.00 0.00 71 1014.5
20260505063546 15 0 0.0 0.0 0.00 0.00 0.00 71 1014.4
20260505063048 15 0 0.0 0.0 0.00 0.00 0.00 71 1014.4
20260505062545 15 0 0.0 0.0 0.00 0.00 0.00 70 1014.3
20260505062047 16 0 0.0 0.0 0.00 0.00 0.00 70 1014.4
20260505061601 16 0 0.0 0.0 0.00 0.00 0.00 69 1014.4
20260505061044 16 0 0.0 0.0 0.00 0.00 0.00 69 1014.4
20260505060544 16 0 0.0 1.6 0.00 0.00 0.00 69 1014.4
20260505060055 16 0 0.0 1.6 0.00 0.00 0.00 69 1014.4
20260505055545 16 0 0.0 0.0 0.00 0.00 0.00 68 1014.4
20260505055044 16 0 0.0 0.0 0.00 0.00 0.00 68 1014.4
20260505054557 16 0 0.0 0.0 0.00 0.00 0.00 68 1014.4
20260505054043 16 0 0.0 0.0 0.00 0.00 0.00 68 1014.4
20260505053543 16 0 0.0 1.6 0.00 0.00 0.00 68 1014.5
20260505053057 16 0 0.0 1.6 0.00 0.00 0.00 68 1014.6
20260505052544 16 0 0.0 0.0 0.00 0.00 0.00 67 1014.7
20260505052044 16 0 0.0 1.6 0.00 0.00 0.00 67 1014.6
20260505051549 16 0 0.0 1.6 0.00 0.00 0.00 67 1014.7
20260505051044 17 0 0.0 0.0 0.00 0.00 0.00 67 1014.7
20260505050544 17 0 0.0 0.0 0.00 0.00 0.00 66 1014.8
20260505041557 17 0 0.0 1.6 0.00 0.00 0.00 64 1014.6
20260505041043 17 0 0.0 1.6 0.00 0.00 0.00 64 1014.6
20260505040543 17 240 0.0 1.6 0.00 0.00 0.00 64 1014.6
20260505040103 18 0 0.0 1.6 0.00 0.00 0.00 63 1014.6
20260505035543 18 236 0.0 1.6 0.00 0.00 0.00 63 1014.5
20260505035044 18 0 0.0 3.2 0.00 0.00 0.00 63 1014.5
20260505034556 18 0 0.0 3.2 0.00 0.00 0.00 63 1014.5
20260505034044 18 0 0.0 3.2 0.00 0.00 0.00 63 1014.5
20260505033544 18 0 0.0 1.6 0.00 0.00 0.00 63 1014.5
20260505033056 18 0 0.0 1.6 0.00 0.00 0.00 62 1014.5
20260505032544 18 0 0.0 1.6 0.00 0.00 0.00 62 1014.5
20260505032043 18 0 0.0 1.6 0.00 0.00 0.00 62 1014.5
20260505031601 18 0 0.0 1.6 0.00 0.00 0.00 62 1014.5
20260505031047 18 228 0.0 1.6 0.00 0.00 0.00 62 1014.5
20260505030545 18 0 0.0 1.6 0.00 0.00 0.00 62 1014.5
20260505030100 19 0 0.0 3.2 0.00 0.00 0.00 61 1014.5
20260505025543 19 0 0.0 3.2 0.00 0.00 0.00 61 1014.6
20260505025044 19 237 0.0 1.6 0.00 0.00 0.00 61 1014.6
20260505024553 19 249 0.0 1.6 0.00 0.00 0.00 61 1014.5
20260505024044 19 240 0.0 1.6 0.00 0.00 0.00 60 1014.6
20260505023544 19 0 0.0 1.6 0.00 0.00 0.00 60 1014.6
20260505023051 19 0 0.0 3.2 0.00 0.00 0.00 59 1014.6
20260505022544 20 0 0.0 3.2 0.00 0.00 0.00 59 1014.5
20260505022044 20 72 0.0 0.0 0.00 0.00 0.00 58 1014.4
20260505021549 20 0 0.0 1.6 0.00 0.00 0.00 57 1014.4
20260505021044 20 0 0.0 1.6 0.00 0.00 0.00 56 1014.3
20260505020545 20 0 0.0 0.0 0.00 0.00 0.00 55 1014.3
20260505020050 20 0 0.0 0.0 0.00 0.00 0.00 54 1014.2
20260505015544 20 0 0.0 0.0 0.00 0.00 0.00 53 1014.1
20260505015044 20 0 0.0 0.0 0.00 0.00 0.00 52 1014.0
20260505014603 20 0 0.0 0.0 0.00 0.00 0.00 50 1014.0
20260505014049 20 0 0.0 0.0 0.00 0.00 0.00 50 1014.0
20260505013545 20 0 0.0 0.0 0.00 0.00 0.00 50 1014.0
20260505013049 20 0 0.0 0.0 0.00 0.00 0.00 49 1013.8
20260505012544 20 0 0.0 0.0 0.00 0.00 0.00 49 1013.7
20260505012044 20 0 0.0 0.0 0.00 0.00 0.00 48 1013.7
20260505011554 20 0 0.0 0.0 0.00 0.00 0.00 48 1013.6
20260505011045 20 0 0.0 0.0 0.00 0.00 0.00 48 1013.6
20260505010545 20 0 0.0 0.0 0.00 0.00 0.00 48 1013.5
20260505010052 20 0 0.0 0.0 0.00 0.00 0.00 46 1013.4
20260505005545 21 0 0.0 0.0 0.00 0.00 0.00 47 1013.3
20260505005045 21 0 0.0 0.0 0.00 0.00 0.00 46 1013.1
20260505004555 21 0 0.0 0.0 0.00 0.00 0.00 46 1013.1
20260505004044 21 0 0.0 0.0 0.00 0.00 0.00 45 1013.0
20260505003543 21 0 0.0 0.0 0.00 0.00 0.00 45 1013.0
20260505003054 21 0 0.0 0.0 0.00 0.00 0.00 45 1012.9
20260505002546 21 0 0.0 0.0 0.00 0.00 0.00 44 1012.9
20260505002044 21 0 0.0 0.0 0.00 0.00 0.00 45 1012.8
20260505001550 22 0 0.0 0.0 0.00 0.00 0.00 44 1012.9
20260505001044 22 0 0.0 0.0 0.00 0.00 0.00 44 1012.8
20260505000544 22 0 0.0 0.0 0.00 0.00 0.00 43 1012.8
20260505000057 22 0 0.0 0.0 0.00 0.00 0.00 42 1012.8
20260504235547 22 0 0.0 0.0 0.00 0.00 0.00 41 1012.8
20260504235044 22 0 0.0 0.0 0.00 0.00 0.00 41 1012.7
20260504234555 23 0 0.0 0.0 0.00 0.00 0.00 40 1012.6
20260504234045 23 0 0.0 1.6 0.00 0.00 0.00 40 1012.6
20260504233539 23 0 0.0 1.6 0.00 0.00 0.00 40 1012.5
20260504233052 23 0 0.0 1.6 0.00 0.00 0.00 39 1012.5
20260504232543 23 0 0.0 1.6 0.00 0.00 0.00 38 1012.5
20260504232044 23 0 0.0 0.0 0.00 0.00 0.00 37 1012.4
20260504231549 24 0 0.0 0.0 0.00 0.00 0.00 37 1012.3
20260504231038 24 0 0.0 1.6 0.00 0.00 0.00 34 1012.3
20260504230544 24 0 0.0 1.6 0.00 0.00 0.00 34 1012.3
20260504230052 24 0 0.0 1.6 0.00 0.00 0.00 33 1012.3
20260504225540 24 0 0.0 1.6 0.00 0.00 0.00 34 1012.3
20260504225042 25 225 0.0 1.6 0.00 0.00 0.00 33 1012.4
20260504224550 25 0 0.0 0.0 0.00 0.00 0.00 34 1012.4
20260504224043 25 0 0.0 1.6 0.00 0.00 0.00 35 1012.4
20260504223543 25 0 0.0 1.6 0.00 0.00 0.00 33 1012.4
20260504223050 25 233 0.0 1.6 0.00 0.00 0.00 34 1012.4
20260504222542 25 243 0.0 0.0 0.00 0.00 0.00 33 1012.4
20260504222042 25 0 0.0 3.2 0.00 0.00 0.00 33 1012.4
20260504221552 25 0 0.0 3.2 0.00 0.00 0.00 33 1012.4
20260504221042 25 0 0.0 3.2 0.00 0.00 0.00 33 1012.4
20260504220543 25 110 0.0 1.6 0.00 0.00 0.00 33 1012.4
20260504220052 25 179 0.0 1.6 0.00 0.00 0.00 33 1012.4
20260504215544 25 0 0.0 1.6 0.00 0.00 0.00 33 1012.4
20260504215042 26 0 0.0 1.6 0.00 0.00 0.00 32 1012.4
20260504214555 26 0 0.0 1.6 0.00 0.00 0.00 32 1012.4
20260504214039 26 219 0.0 1.6 0.00 0.00 0.00 33 1012.3
20260504213542 26 214 0.0 1.6 0.00 0.00 0.00 32 1012.4
20260504213056 26 216 0.0 1.6 0.00 0.00 0.00 32 1012.4
20260504212543 26 0 0.0 3.2 0.00 0.00 0.00 32 1012.5
20260504212043 26 0 0.0 3.2 0.00 0.00 0.00 32 1012.4
20260504211549 27 206 0.0 3.2 0.00 0.00 0.00 32 1012.4
20260504211043 27 0 0.0 1.6 0.00 0.00 0.00 30 1012.4
20260504210543 27 139 0.0 1.6 0.00 0.00 0.00 31 1012.4
20260504205543 27 0 0.0 1.6 0.00 0.00 0.00 31 1012.5
20260504205043 28 243 0.0 3.2 0.00 0.00 0.00 30 1012.5
20260504204610 27 6 0.0 3.2 0.00 0.00 0.00 30 1012.6
20260504204039 27 0 0.0 3.2 0.00 0.00 0.00 30 1012.6
20260504203539 27 246 0.0 3.2 0.00 0.00 0.00 30 1012.7
20260504203111 27 0 0.0 3.2 0.00 0.00 0.00 31 1012.7
20260504202542 27 0 0.0 1.6 0.00 0.00 0.00 31 1012.8
20260504202043 27 323 0.0 1.6 0.00 0.00 0.00 31 1012.8
20260504201551 27 0 0.0 1.6 0.00 0.00 0.00 31 1012.9
20260504201042 27 0 0.0 1.6 0.00 0.00 0.00 31 1013.0
20260504200542 27 230 0.0 1.6 0.00 0.00 0.00 30 1013.1
20260504200054 27 0 0.0 1.6 0.00 0.00 0.00 30 1013.1
20260504195541 27 0 0.0 3.2 0.00 0.00 0.00 32 1013.1
20260504195043 26 231 0.0 3.2 0.00 0.00 0.00 32 1013.2
20260504194547 26 252 0.0 3.2 0.00 0.00 0.00 31 1013.3
20260504194041 26 231 0.0 1.6 0.00 0.00 0.00 33 1013.4
20260504193543 26 0 0.0 3.2 0.00 0.00 0.00 33 1013.4
20260504193054 26 0 0.0 3.2 0.00 0.00 0.00 33 1013.5
20260504192543 26 0 0.0 4.8 0.00 0.00 0.00 33 1013.6
20260504192043 25 0 0.0 4.8 0.00 0.00 0.00 34 1013.5
20260504191554 25 231 0.0 3.2 0.00 0.00 0.00 34 1013.5
20260504191042 25 239 1.6 3.2 0.00 0.00 0.00 36 1013.6
20260504190542 25 319 0.0 1.6 0.00 0.00 0.00 35 1013.6
20260504190053 25 221 0.0 3.2 0.00 0.00 0.00 35 1013.7
20260504185543 25 237 0.0 3.2 0.00 0.00 0.00 36 1013.8
20260504185042 25 326 0.0 3.2 0.00 0.00 0.00 35 1013.7
20260504184547 25 233 0.0 3.2 0.00 0.00 0.00 36 1014.0
20260504184042 24 331 0.0 3.2 0.00 0.00 0.00 37 1014.1
20260504183544 23 0 0.0 3.2 0.00 0.00 0.00 36 1014.0
20260504183051 23 229 0.0 1.6 0.00 0.00 0.00 37 1014.0
20260504182540 23 0 0.0 3.2 0.00 0.00 0.00 36 1014.2
20260504182041 23 232 0.0 3.2 0.00 0.00 0.00 37 1014.2
20260504181548 23 224 0.0 1.6 0.00 0.00 0.00 38 1014.3